Terminal Aerodrome Forecast
Issued by NWS

Home | Current Version | Previous Version | Text Only | Print | Product List | Glossary On
Versions: 1 2 3 4 5 6 7 8 9 10 11 12 13 14 15 16
000
FTUS43 KICT 010500
TAFHUT
TAF
KHUT 010527Z 0106/0206 15012G20KT P6SM VCTS OVC080CB
     FM010900 17013KT P6SM SCT060 BKN250
     FM011600 18015G22KT P6SM SCT060
     FM012100 20015G25KT P6SM FEW060=

USA.gov is the U.S. government's official web portal to all federal, state and local government web resources and services.